User: anonymous   Login
Location: Gradaro
(45.0833°N, 10.8833°E)
Time: 08:06:18
(UTC+00:00)
Language:

FENGYUN 1C DEB - Orbit

View from above orbital plane
View from above orbital plane
View from above satellite
View from above satellite

Ground track
Ground track

The orbit data is extracted from the following two-line orbital elements,

1 30552U 99025AKS 21171.18266625  .00001064  00000-0  49679-3 0  9997
2 30552  98.8440 251.5574 0018350  11.8965 348.2642 14.22466187742201
Epoch (UTC): 20 June 2021 04:23:02
Eccentricity: 0.0018350
inclination: 98.8440°
perigee height: 804 km
apogee height: 830 km
right ascension of ascending node: 251.5574°
argument of perigee: 11.8965°
revolutions per day: 14.22466187
mean anomaly at epoch: 348.2642°
orbit number at epoch: 74220

The dashed part of the orbit path shows where the satellite is in the earth's shadow,  

DLR